Wetterdaten: Donnerstag, 19.06.2008
Datum Zeit Temp. a Sch. Temp. a Son. Temp. a Bod. Feuchte a. Luftdruck Regen Wind Richtung Richtung Sonnenschein Helligkeit Taupunkt Windchill
19.06.2008 00:01 12,7 C 13,9 C 14,6 C 73 % 1016 hPa 0,0 l/m 0,0 m/s (0 Bft) O-NO 60 0 min 0 lux 8,0 C 12,7 C
19.06.2008 00:06 12,6 C 13,8 C 14,6 C 73 % 1016 hPa 0,0 l/m 0,0 m/s (0 Bft) O-NO 60 0 min 0 lux 7,9 C 12,6 C
19.06.2008 00:11 12,6 C 13,8 C 14,6 C 74 % 1016 hPa 0,0 l/m 0,0 m/s (0 Bft) O-NO 60 0 min 0 lux 8,1 C 12,6 C
19.06.2008 00:16 12,4 C 13,7 C 14,4 C 74 % 1016 hPa 0,0 l/m 0,0 m/s (0 Bft) O-NO 60 0 min 0 lux 7,9 C 12,4 C
19.06.2008 00:21 12,4 C 13,6 C 14,1 C 75 % 1016 hPa 0,0 l/m 0,0 m/s (0 Bft) O-NO 60 0 min 0 lux 8,1 C 12,4 C
19.06.2008 00:26 12,3 C 13,5 C 14,1 C 75 % 1015 hPa 0,0 l/m 0,0 m/s (0 Bft) O-NO 60 0 min 0 lux 8,0 C 12,3 C
19.06.2008 00:31 12,2 C 13,5 C 14,3 C 76 % 1015 hPa 0,0 l/m 0,0 m/s (0 Bft) O-NO 60 0 min 0 lux 8,1 C 12,2 C
19.06.2008 00:36 12,1 C 13,3 C 13,9 C 77 % 1015 hPa 0,0 l/m 0,0 m/s (0 Bft) O-NO 60 0 min 0 lux 8,2 C 12,1 C
19.06.2008 00:41 12,0 C 13,2 C 13,9 C 76 % 1015 hPa 0,0 l/m 0,0 m/s (0 Bft) O-NO 60 0 min 0 lux 7,9 C 12,0 C
19.06.2008 00:46 11,9 C 13,1 C 13,8 C 76 % 1015 hPa 0,0 l/m 0,0 m/s (0 Bft) O-NO 60 0 min 0 lux 7,8 C 11,9 C
19.06.2008 00:51 11,9 C 13,0 C 13,6 C 76 % 1015 hPa 0,0 l/m 0,0 m/s (0 Bft) O-NO 60 0 min 0 lux 7,8 C 11,9 C
19.06.2008 00:56 11,8 C 12,9 C 13,7 C 76 % 1015 hPa 0,0 l/m 0,0 m/s (0 Bft) O-NO 60 0 min 0 lux 7,7 C 11,8 C
19.06.2008 01:01 11,6 C 12,8 C 13,7 C 77 % 1015 hPa 0,0 l/m 0,0 m/s (0 Bft) O-NO 65 0 min 0 lux 7,7 C 11,6 C
19.06.2008 01:06 11,6 C 12,8 C 13,3 C 77 % 1015 hPa 0,0 l/m 0,0 m/s (0 Bft) O-NO 65 0 min 0 lux 7,7 C 11,6 C
19.06.2008 01:11 11,5 C 12,7 C 13,5 C 77 % 1015 hPa 0,0 l/m 0,0 m/s (0 Bft) O-NO 60 0 min 0 lux 7,6 C 11,5 C
19.06.2008 01:16 11,4 C 12,6 C 13,4 C 77 % 1015 hPa 0,0 l/m 0,0 m/s (0 Bft) O-NO 60 0 min 0 lux 7,5 C 11,4 C
19.06.2008 01:21 11,3 C 12,5 C 13,2 C 78 % 1015 hPa 0,0 l/m 0,0 m/s (0 Bft) O-NO 60 0 min 0 lux 7,6 C 11,3 C
19.06.2008 01:26 11,2 C 12,5 C 13,1 C 79 % 1015 hPa 0,0 l/m 0,0 m/s (0 Bft) O-NO 60 0 min 0 lux 7,7 C 11,2 C
19.06.2008 01:31 11,2 C 12,4 C 13,2 C 79 % 1015 hPa 0,0 l/m 0,0 m/s (0 Bft) O-NO 60 0 min 0 lux 7,7 C 11,2 C
19.06.2008 01:36 11,2 C 12,3 C 13,0 C 81 % 1015 hPa 0,0 l/m 0,0 m/s (0 Bft) O-NO 60 0 min 0 lux 8,1 C 11,2 C
19.06.2008 01:41 11,2 C 12,3 C 13,1 C 81 % 1015 hPa 0,0 l/m 0,0 m/s (0 Bft) O-NO 60 0 min 0 lux 8,1 C 11,2 C
19.06.2008 01:46 11,2 C 12,2 C 13,1 C 81 % 1015 hPa 0,0 l/m 0,0 m/s (0 Bft) O-NO 60 0 min 0 lux 8,1 C 11,2 C
19.06.2008 01:51 11,1 C 12,2 C 13,0 C 80 % 1015 hPa 0,0 l/m 0,0 m/s (0 Bft) O-NO 60 0 min 0 lux 7,8 C 11,1 C
19.06.2008 01:56 11,1 C 12,2 C 12,9 C 80 % 1015 hPa 0,0 l/m 0,0 m/s (0 Bft) O-NO 60 0 min 0 lux 7,8 C 11,1 C
19.06.2008 02:01 11,0 C 12,1 C 13,0 C 80 % 1015 hPa 0,0 l/m 0,0 m/s (0 Bft) O-NO 60 0 min 0 lux 7,7 C 11,0 C
19.06.2008 02:06 11,0 C 12,0 C 12,8 C 80 % 1015 hPa 0,0 l/m 0,0 m/s (0 Bft) O-NO 60 0 min 0 lux 7,7 C 11,0 C
19.06.2008 02:11 10,9 C 11,9 C 12,7 C 80 % 1015 hPa 0,0 l/m 0,0 m/s (0 Bft) O-NO 60 0 min 0 lux 7,6 C 10,9 C
19.06.2008 02:16 10,8 C 11,9 C 12,7 C 80 % 1015 hPa 0,0 l/m 0,0 m/s (0 Bft) O-NO 60 0 min 0 lux 7,5 C 10,8 C
19.06.2008 02:21 10,8 C 11,8 C 12,5 C 80 % 1015 hPa 0,0 l/m 0,0 m/s (0 Bft) O-NO 60 0 min 0 lux 7,5 C 10,8 C
19.06.2008 02:26 10,7 C 11,8 C 12,3 C 80 % 1015 hPa 0,0 l/m 0,0 m/s (0 Bft) O-NO 60 0 min 0 lux 7,4 C 10,7 C
19.06.2008 02:31 10,7 C 11,7 C 12,4 C 80 % 1015 hPa 0,0 l/m 0,0 m/s (0 Bft) O-NO 60 0 min 0 lux 7,4 C 10,7 C
19.06.2008 02:36 10,6 C 11,7 C 12,4 C 80 % 1015 hPa 0,0 l/m 0,0 m/s (0 Bft) O-NO 60 0 min 0 lux 7,3 C 10,6 C
19.06.2008 02:41 10,6 C 11,6 C 12,2 C 81 % 1015 hPa 0,0 l/m 0,0 m/s (0 Bft) O-NO 60 0 min 0 lux 7,5 C 10,6 C
19.06.2008 02:46 10,5 C 11,6 C 12,2 C 81 % 1015 hPa 0,0 l/m 0,0 m/s (0 Bft) O-NO 60 0 min 0 lux 7,4 C 10,5 C
19.06.2008 02:51 10,5 C 11,5 C 12,2 C 81 % 1015 hPa 0,0 l/m 0,0 m/s (0 Bft) O-NO 60 0 min 0 lux 7,4 C 10,5 C
19.06.2008 02:56 10,5 C 11,5 C 12,0 C 81 % 1015 hPa 0,0 l/m 0,0 m/s (0 Bft) O-NO 60 0 min 0 lux 7,4 C 10,5 C
19.06.2008 03:01 10,4 C 11,5 C 12,0 C 82 % 1015 hPa 0,0 l/m 0,0 m/s (0 Bft) O-NO 60 0 min 0 lux 7,5 C 10,4 C
19.06.2008 03:06 10,4 C 11,5 C 12,0 C 82 % 1015 hPa 0,0 l/m 0,0 m/s (0 Bft) O-NO 60 0 min 0 lux 7,5 C 10,4 C
19.06.2008 03:11 10,4 C 11,4 C 11,9 C 84 % 1014 hPa 0,0 l/m 0,0 m/s (0 Bft) O-NO 60 0 min 0 lux 7,8 C 10,4 C
19.06.2008 03:16 10,3 C 11,3 C 12,0 C 83 % 1014 hPa 0,0 l/m 0,0 m/s (0 Bft) O-NO 60 0 min 0 lux 7,5 C 10,3 C
19.06.2008 03:21 10,3 C 11,3 C 11,9 C 83 % 1014 hPa 0,0 l/m 0,0 m/s (0 Bft) O-NO 60 0 min 0 lux 7,5 C 10,3 C
19.06.2008 03:26 10,2 C 11,3 C 12,1 C 83 % 1014 hPa 0,0 l/m 0,0 m/s (0 Bft) O-NO 60 0 min 0 lux 7,4 C 10,2 C
19.06.2008 03:31 10,2 C 11,2 C 12,0 C 83 % 1014 hPa 0,0 l/m 0,0 m/s (0 Bft) O-NO 60 0 min 0 lux 7,4 C 10,2 C
19.06.2008 03:36 10,2 C 11,2 C 12,0 C 83 % 1014 hPa 0,0 l/m 0,0 m/s (0 Bft) O-NO 60 0 min 0 lux 7,4 C 10,2 C
19.06.2008 03:41 10,2 C 11,1 C 12,0 C 83 % 1014 hPa 0,0 l/m 0,0 m/s (0 Bft) O-NO 60 0 min 0 lux 7,4 C 10,2 C
19.06.2008 03:46 10,2 C 11,0 C 12,0 C 83 % 1014 hPa 0,0 l/m 0,0 m/s (0 Bft) O-NO 60 0 min 0 lux 7,4 C 10,2 C
19.06.2008 03:51 10,2 C 11,0 C 11,8 C 83 % 1014 hPa 0,0 l/m 0,0 m/s (0 Bft) O-NO 60 0 min 0 lux 7,4 C 10,2 C
19.06.2008 03:56 10,2 C 11,0 C 12,0 C 83 % 1014 hPa 0,0 l/m 0,0 m/s (0 Bft) O-NO 60 0 min 0 lux 7,4 C 10,2 C
19.06.2008 04:01 10,1 C 11,0 C 11,9 C 83 % 1014 hPa 0,0 l/m 0,0 m/s (0 Bft) O-NO 60 0 min 0 lux 7,3 C 10,1 C
19.06.2008 04:06 10,1 C 11,0 C 11,9 C 83 % 1014 hPa 0,0 l/m 0,0 m/s (0 Bft) O-NO 60 0 min 0 lux 7,3 C 10,1 C
19.06.2008 04:11 10,2 C 11,0 C 11,7 C 83 % 1014 hPa 0,0 l/m 0,0 m/s (0 Bft) O-NO 60 0 min 0 lux 7,4 C 10,2 C
19.06.2008 04:16 10,2 C 11,0 C 11,8 C 84 % 1014 hPa 0,0 l/m 0,0 m/s (0 Bft) O-NO 60 0 min 0 lux 7,6 C 10,2 C
19.06.2008 04:21 10,2 C 11,0 C 11,7 C 84 % 1014 hPa 0,0 l/m 0,0 m/s (0 Bft) O-NO 60 0 min 0 lux 7,6 C 10,2 C
19.06.2008 04:26 10,2 C 10,8 C 11,7 C 84 % 1014 hPa 0,0 l/m 0,0 m/s (0 Bft) O-NO 60 0 min 0 lux 7,6 C 10,2 C
19.06.2008 04:31 10,1 C 10,8 C 11,5 C 84 % 1014 hPa 0,0 l/m 0,0 m/s (0 Bft) O-NO 60 0 min 0 lux 7,5 C 10,1 C
19.06.2008 04:36 10,0 C 10,8 C 11,5 C 84 % 1014 hPa 0,0 l/m 0,0 m/s (0 Bft) O-NO 60 0 min 0 lux 7,4 C 10,0 C
19.06.2008 04:41 10,0 C 10,7 C 11,4 C 84 % 1014 hPa 0,0 l/m 0,0 m/s (0 Bft) O-NO 60 0 min 0 lux 7,4 C 10,0 C
19.06.2008 04:46 9,9 C 10,6 C 11,3 C 85 % 1014 hPa 0,0 l/m 0,0 m/s (0 Bft) O-NO 60 0 min 0 lux 7,5 C 9,9 C
19.06.2008 04:51 9,8 C 10,6 C 11,5 C 85 % 1014 hPa 0,0 l/m 0,0 m/s (0 Bft) O-NO 60 0 min 60 lux 7,4 C 9,8 C
19.06.2008 04:56 9,7 C 10,5 C 11,3 C 86 % 1014 hPa 0,0 l/m 0,0 m/s (0 Bft) O-NO 60 0 min 83 lux 7,5 C 9,7 C
19.06.2008 05:01 9,8 C 10,5 C 11,3 C 88 % 1014 hPa 0,0 l/m 0,0 m/s (0 Bft) O-NO 60 0 min 139 lux 7,9 C 9,8 C
19.06.2008 05:06 9,7 C 10,4 C 11,1 C 85 % 1014 hPa 0,0 l/m 0,0 m/s (0 Bft) O-NO 60 0 min 214 lux 7,3 C 9,7 C
19.06.2008 05:11 9,7 C 10,3 C 11,3 C 85 % 1014 hPa 0,0 l/m 0,0 m/s (0 Bft) O-NO 60 0 min 312 lux 7,3 C 9,7 C
19.06.2008 05:16 9,7 C 10,3 C 11,3 C 85 % 1014 hPa 0,0 l/m 0,0 m/s (0 Bft) O-NO 60 0 min 421 lux 7,3 C 9,7 C
19.06.2008 05:21 9,6 C 10,3 C 11,2 C 85 % 1014 hPa 0,0 l/m 0,0 m/s (0 Bft) O-NO 60 0 min 562 lux 7,2 C 9,6 C
19.06.2008 05:26 9,7 C 10,3 C 11,2 C 86 % 1014 hPa 0,0 l/m 0,0 m/s (0 Bft) O-NO 60 0 min 795 lux 7,5 C 9,7 C
19.06.2008 05:31 9,6 C 10,3 C 11,2 C 86 % 1014 hPa 0,0 l/m 0,0 m/s (0 Bft) O-NO 60 0 min 1,19 klux 7,4 C 9,6 C
19.06.2008 05:36 9,6 C 10,3 C 11,0 C 86 % 1014 hPa 0,0 l/m 0,0 m/s (0 Bft) O-NO 60 0 min 1,63 klux 7,4 C 9,6 C
19.06.2008 05:41 9,7 C 10,3 C 11,1 C 86 % 1014 hPa 0,0 l/m 0,0 m/s (0 Bft) O-NO 60 0 min 1,96 klux 7,5 C 9,7 C
19.06.2008 05:46 9,8 C 10,4 C 11,3 C 86 % 1014 hPa 0,0 l/m 0,0 m/s (0 Bft) O-NO 60 0 min 2,74 klux 7,6 C 9,8 C
19.06.2008 05:51 10,0 C 10,5 C 11,4 C 86 % 1014 hPa 0,0 l/m 0,0 m/s (0 Bft) O-NO 60 0 min 2,74 klux 7,8 C 10,0 C
19.06.2008 05:56 10,1 C 10,5 C 11,4 C 87 % 1014 hPa 0,0 l/m 0,0 m/s (0 Bft) O-NO 60 0 min 2,53 klux 8,0 C 10,1 C
19.06.2008 06:01 10,2 C 10,6 C 11,4 C 86 % 1014 hPa 0,0 l/m 0,0 m/s (0 Bft) O-NO 60 0 min 3,43 klux 8,0 C 10,2 C
19.06.2008 06:06 10,3 C 10,6 C 11,5 C 86 % 1014 hPa 0,0 l/m 0,0 m/s (0 Bft) O-NO 60 0 min 4,30 klux 8,1 C 10,3 C
19.06.2008 06:11 10,4 C 10,7 C 11,6 C 85 % 1014 hPa 0,0 l/m 0,0 m/s (0 Bft) O-NO 65 0 min 5,25 klux 8,0 C 10,4 C
19.06.2008 06:16 10,5 C 10,7 C 11,7 C 85 % 1014 hPa 0,0 l/m 0,0 m/s (0 Bft) O-NO 65 0 min 6,38 klux 8,1 C 10,5 C
19.06.2008 06:21 10,5 C 10,9 C 11,7 C 85 % 1014 hPa 0,0 l/m 0,0 m/s (0 Bft) O-NO 65 0 min 6,85 klux 8,1 C 10,5 C
19.06.2008 06:26 10,7 C 10,9 C 11,8 C 85 % 1014 hPa 0,0 l/m 0,0 m/s (0 Bft) O-NO 60 0 min 6,17 klux 8,3 C 10,7 C
19.06.2008 06:31 10,9 C 11,0 C 11,7 C 85 % 1014 hPa 0,0 l/m 0,0 m/s (0 Bft) O-NO 60 0 min 5,94 klux 8,5 C 10,9 C
19.06.2008 06:36 10,8 C 11,0 C 11,9 C 84 % 1014 hPa 0,0 l/m 0,0 m/s (0 Bft) O-NO 60 0 min 5,31 klux 8,2 C 10,8 C
19.06.2008 06:41 10,8 C 11,2 C 12,1 C 85 % 1014 hPa 0,0 l/m 0,0 m/s (0 Bft) O-NO 60 0 min 3,01 klux 8,4 C 10,8 C
19.06.2008 06:46 10,8 C 11,2 C 11,9 C 85 % 1014 hPa 0,0 l/m 0,0 m/s (0 Bft) O-NO 60 0 min 2,45 klux 8,4 C 10,8 C
19.06.2008 06:51 10,8 C 11,3 C 11,9 C 85 % 1014 hPa 0,0 l/m 0,0 m/s (0 Bft) O-NO 60 0 min 5,02 klux 8,4 C 10,8 C
19.06.2008 06:56 10,9 C 11,4 C 12,2 C 85 % 1014 hPa 0,0 l/m 0,0 m/s (0 Bft) O-NO 60 0 min 6,41 klux 8,5 C 10,9 C
19.06.2008 07:01 11,1 C 11,5 C 12,1 C 85 % 1014 hPa 0,0 l/m 0,0 m/s (0 Bft) O-NO 60 0 min 6,68 klux 8,7 C 11,1 C
19.06.2008 07:06 11,3 C 11,5 C 12,1 C 84 % 1014 hPa 0,0 l/m 0,0 m/s (0 Bft) O-NO 60 0 min 6,80 klux 8,7 C 11,3 C
19.06.2008 07:11 11,4 C 11,6 C 12,3 C 84 % 1014 hPa 0,0 l/m 0,0 m/s (0 Bft) O-NO 60 0 min 7,81 klux 8,8 C 11,4 C
19.06.2008 07:16 11,6 C 11,7 C 12,5 C 84 % 1014 hPa 0,0 l/m 0,0 m/s (0 Bft) O-NO 60 0 min 9,6 klux 9,0 C 11,6 C
19.06.2008 07:21 11,7 C 11,8 C 12,6 C 83 % 1014 hPa 0,0 l/m 0,0 m/s (0 Bft) O-NO 60 0 min 9,5 klux 8,9 C 11,7 C
19.06.2008 07:26 11,8 C 11,9 C 12,4 C 83 % 1014 hPa 0,0 l/m 0,0 m/s (0 Bft) S-SW 205 0 min 8,22 klux 9,0 C 11,8 C
19.06.2008 07:31 11,8 C 12,0 C 12,3 C 83 % 1014 hPa 0,0 l/m 0,1 m/s (0 Bft) O67.5 90 0 min 8,34 klux 9,0 C 11,8 C
19.06.2008 07:36 11,9 C 12,0 C 12,8 C 83 % 1014 hPa 0,0 l/m 0,0 m/s (0 Bft) O-NO 65 0 min 10,9 klux 9,1 C 11,9 C
19.06.2008 07:41 12,0 C 12,2 C 13,0 C 83 % 1014 hPa 0,0 l/m 0,0 m/s (0 Bft) O-NO 65 0 min 12,6 klux 9,2 C 12,0 C
19.06.2008 07:46 12,3 C 12,3 C 13,0 C 82 % 1014 hPa 0,0 l/m 0,0 m/s (0 Bft) O-NO 65 0 min 9,7 klux 9,3 C 12,3 C
19.06.2008 07:51 12,4 C 12,3 C 12,9 C 82 % 1014 hPa 0,0 l/m 0,1 m/s (0 Bft) O-NO 65 0 min 8,73 klux 9,4 C 12,4 C
19.06.2008 07:56 12,4 C 12,4 C 13,0 C 82 % 1014 hPa 0,0 l/m 0,0 m/s (0 Bft) O-NO 65 0 min 9,00 klux 9,4 C 12,4 C
19.06.2008 08:01 12,5 C 12,6 C 13,2 C 82 % 1014 hPa 0,0 l/m 0,0 m/s (0 Bft) O-NO 65 0 min 10,1 klux 9,5 C 12,5 C
19.06.2008 08:06 12,6 C 12,7 C 13,4 C 82 % 1014 hPa 0,0 l/m 0,0 m/s (0 Bft) O-NO 65 0 min 12,1 klux 9,6 C 12,6 C
19.06.2008 08:11 12,7 C 12,8 C 13,3 C 82 % 1014 hPa 0,0 l/m 0,0 m/s (0 Bft) O-NO 65 0 min 12,2 klux 9,7 C 12,7 C
19.06.2008 08:16 12,8 C 12,9 C 13,4 C 82 % 1014 hPa 0,0 l/m 0,0 m/s (0 Bft) O-NO 65 0 min 11,7 klux 9,8 C 12,8 C
19.06.2008 08:21 12,9 C 13,0 C 13,4 C 82 % 1014 hPa 0,0 l/m 0,0 m/s (0 Bft) O-NO 60 0 min 11,7 klux 9,9 C 12,9 C
19.06.2008 08:26 13,1 C 13,0 C 13,5 C 82 % 1014 hPa 0,0 l/m 0,0 m/s (0 Bft) O-NO 60 0 min 10,0 klux 10,1 C 13,1 C
19.06.2008 08:31 13,2 C 13,2 C 13,6 C 82 % 1014 hPa 0,0 l/m 0,0 m/s (0 Bft) O-NO 60 0 min 10,9 klux 10,2 C 13,2 C
19.06.2008 08:36 13,2 C 13,3 C 14,0 C 81 % 1014 hPa 0,0 l/m 0,0 m/s (0 Bft) O-NO 60 0 min 15,5 klux 10,0 C 13,2 C
19.06.2008 08:41 13,4 C 13,5 C 13,9 C 81 % 1014 hPa 0,0 l/m 0,0 m/s (0 Bft) O-NO 60 0 min 16,2 klux 10,2 C 13,4 C
19.06.2008 08:46 13,5 C 13,5 C 14,0 C 81 % 1014 hPa 0,0 l/m 0,0 m/s (0 Bft) O-NO 60 0 min 15,5 klux 10,3 C 13,5 C
19.06.2008 08:51 13,8 C 13,6 C 14,3 C 82 % 1014 hPa 0,0 l/m 0,0 m/s (0 Bft) O-NO 60 5 min 49,6 klux 10,8 C 13,8 C
19.06.2008 08:56 15,0 C 13,8 C 16,5 C 76 % 1014 hPa 0,0 l/m 1,9 m/s (2 Bft) O67.5 100 5 min 71,7 klux 10,8 C 14,7 C
19.06.2008 09:01 15,6 C 14,1 C 18,0 C 76 % 1014 hPa 0,0 l/m 0,0 m/s (0 Bft) S-SO22.5 150 5 min 90,8 klux 11,4 C 15,6 C
19.06.2008 09:06 16,7 C 14,6 C 17,4 C 73 % 1014 hPa 0,0 l/m 1,6 m/s (1 Bft) O-SO67.5 120 5 min 76,0 klux 11,8 C 16,7 C
19.06.2008 09:11 17,2 C 15,0 C 18,3 C 69 % 1014 hPa 0,0 l/m 0,1 m/s (0 Bft) S67.5 190 5 min 82,9 klux 11,5 C 17,2 C
19.06.2008 09:16 17,9 C 15,2 C 19,1 C 65 % 1014 hPa 0,0 l/m 2,8 m/s (2 Bft) W-SW67.5 240 5 min 82,4 klux 11,2 C 16,3 C
19.06.2008 09:21 18,2 C 15,6 C 20,1 C 62 % 1014 hPa 0,0 l/m 3,1 m/s (2 Bft) W-SW45 240 5 min 90,0 klux 10,8 C 16,2 C
19.06.2008 09:26 18,7 C 16,1 C 19,9 C 60 % 1014 hPa 0,0 l/m 2,1 m/s (2 Bft) SW67.5 225 5 min 56,3 klux 10,8 C 18,2 C
19.06.2008 09:31 18,7 C 16,5 C 19,2 C 58 % 1014 hPa 0,0 l/m 5,3 m/s (3 Bft) W45 275 5 min 48,4 klux 10,3 C 14,8 C
19.06.2008 09:36 18,8 C 16,8 C 20,0 C 58 % 1014 hPa 0,0 l/m 4,5 m/s (3 Bft) W22.5 270 5 min 86,5 klux 10,4 C 15,5 C
19.06.2008 09:41 18,5 C 17,1 C 19,6 C 57 % 1014 hPa 0,0 l/m 7,6 m/s (4 Bft) W-NW22.5 285 0 min 33,1 klux 9,8 C 13,0 C
19.06.2008 09:46 18,2 C 17,3 C 19,6 C 58 % 1014 hPa 0,0 l/m 3,9 m/s (3 Bft) W45 275 0 min 36,6 klux 9,8 C 15,3 C
19.06.2008 09:51 18,2 C 17,5 C 19,6 C 57 % 1014 hPa 0,0 l/m 4,5 m/s (3 Bft) W67.5 265 0 min 35,9 klux 9,5 C 14,8 C
19.06.2008 09:56 18,6 C 17,7 C 21,0 C 57 % 1014 hPa 0,0 l/m 5,1 m/s (3 Bft) W45 265 5 min 101 klux 9,9 C 14,8 C
19.06.2008 10:01 19,0 C 18,5 C 20,7 C 54 % 1014 hPa 0,0 l/m 6,6 m/s (4 Bft) W67.5 275 5 min 97,8 klux 9,5 C 14,2 C
19.06.2008 10:06 19,2 C 18,5 C 21,6 C 53 % 1014 hPa 0,0 l/m 4,9 m/s (3 Bft) W45 275 5 min 101 klux 9,4 C 15,6 C
19.06.2008 10:11 19,4 C 19,5 C 22,2 C 55 % 1014 hPa 0,0 l/m 5,3 m/s (3 Bft) W67.5 265 5 min 90,0 klux 10,1 C 15,6 C
19.06.2008 10:16 19,7 C 20,2 C 22,8 C 53 % 1014 hPa 0,0 l/m 6,6 m/s (4 Bft) W-SW67.5 245 5 min 89,4 klux 9,8 C 15,2 C
19.06.2008 10:21 19,8 C 20,9 C 23,4 C 53 % 1014 hPa 0,0 l/m 4,6 m/s (3 Bft) W-SW67.5 245 5 min 94,1 klux 9,9 C 16,6 C
19.06.2008 10:26 19,9 C 21,1 C 23,5 C 51 % 1014 hPa 0,0 l/m 5,0 m/s (3 Bft) W45 275 5 min 86,3 klux 9,5 C 16,5 C
19.06.2008 10:31 19,8 C 21,4 C 22,9 C 51 % 1014 hPa 0,0 l/m 9,1 m/s (5 Bft) W67.5 260 5 min 97,5 klux 9,4 C 14,1 C
19.06.2008 10:36 19,7 C 21,6 C 23,8 C 47 % 1014 hPa 0,0 l/m 6,9 m/s (4 Bft) W45 270 5 min 93,7 klux 8,1 C 15,0 C
19.06.2008 10:41 19,7 C 21,8 C 23,9 C 48 % 1014 hPa 0,0 l/m 8,6 m/s (5 Bft) W45 270 5 min 94,4 klux 8,4 C 14,2 C
19.06.2008 10:46 19,6 C 21,9 C 23,6 C 47 % 1014 hPa 0,0 l/m 8,3 m/s (5 Bft) W45 265 5 min 97,6 klux 8,0 C 14,2 C
19.06.2008 10:51 19,6 C 21,9 C 24,5 C 48 % 1014 hPa 0,0 l/m 8,6 m/s (5 Bft) W22.5 275 5 min 101 klux 8,3 C 14,0 C
19.06.2008 10:56 19,6 C 22,1 C 24,1 C 46 % 1014 hPa 0,0 l/m 8,7 m/s (5 Bft) W45 260 5 min 102 klux 7,7 C 14,0 C
19.06.2008 11:01 19,5 C 22,2 C 24,0 C 48 % 1014 hPa 0,0 l/m 8,0 m/s (5 Bft) W22.5 270 5 min 105 klux 8,2 C 14,2 C
19.06.2008 11:06 19,6 C 22,2 C 23,6 C 44 % 1014 hPa 0,0 l/m 9,8 m/s (5 Bft) W-SW67.5 245 5 min 105 klux 7,0 C 13,6 C
19.06.2008 11:11 19,6 C 22,1 C 24,6 C 47 % 1014 hPa 0,0 l/m 6,5 m/s (4 Bft) W45 265 5 min 107 klux 8,0 C 15,1 C
19.06.2008 11:16 20,0 C 22,4 C 25,5 C 49 % 1014 hPa 0,0 l/m 7,8 m/s (4 Bft) W22.5 270 5 min 105 klux 9,0 C 15,0 C
19.06.2008 11:21 20,1 C 22,8 C 24,3 C 48 % 1014 hPa 0,0 l/m 6,6 m/s (4 Bft) W22.5 265 5 min 105 klux 8,7 C 15,7 C
19.06.2008 11:26 20,0 C 22,7 C 24,9 C 45 % 1014 hPa 0,0 l/m 6,9 m/s (4 Bft) W45 260 5 min 102 klux 7,7 C 15,4 C
19.06.2008 11:31 19,9 C 22,8 C 25,4 C 45 % 1014 hPa 0,0 l/m 6,9 m/s (4 Bft) W45 265 5 min 104 klux 7,6 C 15,3 C
19.06.2008 11:36 20,2 C 22,8 C 24,7 C 46 % 1014 hPa 0,0 l/m 5,6 m/s (4 Bft) W-SW45 255 5 min 106 klux 8,2 C 16,5 C
19.06.2008 11:41 20,5 C 23,0 C 25,8 C 46 % 1014 hPa 0,0 l/m 7,2 m/s (4 Bft) W-SW45 255 5 min 105 klux 8,5 C 15,9 C
19.06.2008 11:46 20,7 C 23,4 C 26,6 C 45 % 1014 hPa 0,0 l/m 5,6 m/s (4 Bft) W-SW45 255 5 min 107 klux 8,3 C 17,1 C
19.06.2008 11:51 20,9 C 23,6 C 26,4 C 45 % 1014 hPa 0,0 l/m 6,3 m/s (4 Bft) W45 260 5 min 105 klux 8,5 C 17,0 C
19.06.2008 11:56 21,1 C 24,0 C 26,9 C 44 % 1014 hPa 0,0 l/m 5,8 m/s (4 Bft) W-SW45 250 5 min 109 klux 8,4 C 17,5 C
19.06.2008 12:01 21,3 C 24,4 C 27,8 C 46 % 1014 hPa 0,0 l/m 5,1 m/s (3 Bft) SW67.5 230 5 min 108 klux 9,2 C 18,2 C
19.06.2008 12:06 21,5 C 24,7 C 26,7 C 42 % 1014 hPa 0,0 l/m 4,5 m/s (3 Bft) W-SW67.5 240 5 min 112 klux 8,0 C 18,8 C
19.06.2008 12:11 21,4 C 24,7 C 26,5 C 45 % 1014 hPa 0,0 l/m 5,4 m/s (3 Bft) SW67.5 225 5 min 90,6 klux 9,0 C 18,1 C
19.06.2008 12:16 21,4 C 24,2 C 26,3 C 44 % 1014 hPa 0,0 l/m 5,8 m/s (4 Bft) S67.5 190 5 min 108 klux 8,6 C 17,9 C
19.06.2008 12:21 21,5 C 24,0 C 27,0 C 44 % 1014 hPa 0,0 l/m 4,9 m/s (3 Bft) S67.5 180 5 min 116 klux 8,7 C 18,5 C
19.06.2008 12:26 21,4 C 24,1 C 26,4 C 43 % 1014 hPa 0,0 l/m 7,9 m/s (4 Bft) W-SW45 255 5 min 108 klux 8,3 C 16,9 C
19.06.2008 12:31 21,8 C 24,3 C 26,9 C 44 % 1014 hPa 0,0 l/m 5,9 m/s (4 Bft) W-SW67.5 255 5 min 135 klux 9,0 C 18,3 C
19.06.2008 12:36 21,8 C 24,0 C 26,4 C 41 % 1014 hPa 0,0 l/m 7,8 m/s (4 Bft) W-SW67.5 255 0 min 63,8 klux 8,0 C 17,5 C
19.06.2008 12:41 21,7 C 23,9 C 26,8 C 41 % 1014 hPa 0,0 l/m 8,0 m/s (4 Bft) W-SW22.5 255 5 min 69,8 klux 7,9 C 17,2 C
19.06.2008 12:46 22,1 C 23,9 C 26,8 C 41 % 1014 hPa 0,0 l/m 7,9 m/s (4 Bft) W-SW45 255 5 min 109 klux 8,2 C 17,8 C
19.06.2008 12:51 22,6 C 24,3 C 28,2 C 41 % 1014 hPa 0,0 l/m 7,1 m/s (4 Bft) W-SW45 245 5 min 137 klux 8,7 C 18,8 C
19.06.2008 12:56 23,6 C 24,6 C 28,5 C 38 % 1014 hPa 0,0 l/m 6,9 m/s (4 Bft) SW67.5 230 5 min 144 klux 8,4 C 20,3 C
19.06.2008 13:01 23,1 C 24,8 C 27,4 C 37 % 1014 hPa 0,0 l/m 7,2 m/s (4 Bft) W-SW45 250 0 min 62,1 klux 7,6 C 19,5 C
19.06.2008 13:06 22,3 C 24,1 C 26,1 C 38 % 1014 hPa 0,0 l/m 8,1 m/s (5 Bft) W-SW45 240 0 min 51,6 klux 7,3 C 18,1 C
19.06.2008 13:11 22,2 C 23,9 C 26,5 C 39 % 1014 hPa 0,0 l/m 8,0 m/s (4 Bft) W-SW45 245 0 min 66,9 klux 7,6 C 17,9 C
19.06.2008 13:16 22,3 C 23,9 C 26,9 C 41 % 1014 hPa 0,0 l/m 7,4 m/s (4 Bft) W-SW45 240 5 min 70,7 klux 8,4 C 18,3 C
19.06.2008 13:21 22,5 C 24,0 C 26,9 C 40 % 1014 hPa 0,0 l/m 7,9 m/s (4 Bft) W-SW45 255 0 min 68,6 klux 8,2 C 18,4 C
19.06.2008 13:26 22,5 C 24,0 C 27,1 C 40 % 1014 hPa 0,0 l/m 7,6 m/s (4 Bft) W-SW67.5 250 5 min 141 klux 8,2 C 18,5 C
19.06.2008 13:31 23,2 C 24,4 C 28,0 C 41 % 1013 hPa 0,0 l/m 6,9 m/s (4 Bft) W22.5 260 5 min 142 klux 9,2 C 19,7 C
19.06.2008 13:36 23,3 C 25,2 C 28,0 C 40 % 1013 hPa 0,0 l/m 8,9 m/s (5 Bft) W-SW22.5 250 5 min 145 klux 8,9 C 19,2 C
19.06.2008 13:41 23,6 C 25,5 C 28,1 C 39 % 1013 hPa 0,0 l/m 5,7 m/s (4 Bft) W-SW67.5 250 5 min 82,2 klux 8,8 C 20,8 C
19.06.2008 13:46 23,5 C 25,4 C 27,5 C 39 % 1014 hPa 0,0 l/m 7,6 m/s (4 Bft) SW67.5 230 0 min 67,7 klux 8,7 C 19,9 C
19.06.2008 13:51 23,5 C 25,1 C 27,5 C 40 % 1014 hPa 0,0 l/m 8,2 m/s (5 Bft) W-SW67.5 240 5 min 74,6 klux 9,1 C 19,7 C
19.06.2008 13:56 23,5 C 25,4 C 27,3 C 39 % 1014 hPa 0,0 l/m 5,6 m/s (4 Bft) SW67.5 220 5 min 83,8 klux 8,7 C 20,7 C
19.06.2008 14:01 24,0 C 26,3 C 29,8 C 41 % 1014 hPa 0,0 l/m 4,5 m/s (3 Bft) SW45 225 5 min 141 klux 9,9 C 21,9 C
19.06.2008 14:06 24,6 C 26,4 C 28,2 C 38 % 1014 hPa 0,0 l/m 8,2 m/s (5 Bft) W-SW45 250 5 min 76,2 klux 9,3 C 21,2 C
19.06.2008 14:11 24,1 C 25,9 C 28,1 C 38 % 1014 hPa 0,0 l/m 7,1 m/s (4 Bft) SW67.5 225 5 min 93,6 klux 8,9 C 20,9 C
19.06.2008 14:16 24,1 C 26,0 C 28,9 C 38 % 1014 hPa 0,0 l/m 7,8 m/s (4 Bft) W45 270 5 min 103 klux 8,9 C 20,6 C
19.06.2008 14:21 23,4 C 25,8 C 28,1 C 41 % 1014 hPa 0,0 l/m 5,6 m/s (4 Bft) W22.5 270 0 min 53,9 klux 9,4 C 20,6 C
19.06.2008 14:26 23,0 C 25,5 C 27,5 C 40 % 1014 hPa 0,0 l/m 8,2 m/s (5 Bft) W-SW45 250 0 min 57,7 klux 8,7 C 19,0 C
19.06.2008 14:31 22,8 C 25,0 C 26,5 C 40 % 1014 hPa 0,0 l/m 9,6 m/s (5 Bft) W22.5 260 0 min 40,2 klux 8,5 C 18,3 C
19.06.2008 14:36 22,4 C 24,4 C 26,7 C 42 % 1014 hPa 0,0 l/m 6,4 m/s (4 Bft) W-SW45 255 0 min 47,1 klux 8,9 C 18,9 C
19.06.2008 14:41 22,5 C 24,4 C 26,9 C 43 % 1014 hPa 0,0 l/m 6,1 m/s (4 Bft) W45 260 0 min 53,5 klux 9,3 C 19,2 C
19.06.2008 14:46 22,7 C 24,4 C 26,7 C 42 % 1014 hPa 0,0 l/m 7,7 m/s (4 Bft) W-SW67.5 255 5 min 80,0 klux 9,1 C 18,8 C
19.06.2008 14:51 22,9 C 24,2 C 26,0 C 41 % 1014 hPa 0,0 l/m 7,8 m/s (4 Bft) W-SW67.5 250 0 min 43,7 klux 8,9 C 19,0 C
19.06.2008 14:56 22,3 C 23,9 C 25,3 C 43 % 1014 hPa 0,0 l/m 11,8 m/s (6 Bft) W-SW45 250 0 min 26,7 klux 9,1 C 17,0 C
19.06.2008 15:01 22,0 C 23,5 C 24,6 C 45 % 1014 hPa 0,0 l/m 9,9 m/s (5 Bft) W45 260 0 min 31,5 klux 9,5 C 17,0 C
19.06.2008 15:06 21,4 C 23,1 C 24,6 C 46 % 1014 hPa 0,0 l/m 8,5 m/s (5 Bft) W45 260 0 min 43,8 klux 9,3 C 16,6 C
19.06.2008 15:11 21,5 C 23,0 C 25,2 C 47 % 1014 hPa 0,0 l/m 8,5 m/s (5 Bft) W45 260 0 min 41,5 klux 9,7 C 16,8 C
19.06.2008 15:16 21,7 C 22,9 C 25,4 C 46 % 1014 hPa 0,0 l/m 5,4 m/s (3 Bft) W-SW45 255 0 min 60,6 klux 9,6 C 18,5 C
19.06.2008 15:21 21,9 C 23,0 C 25,3 C 46 % 1014 hPa 0,0 l/m 6,6 m/s (4 Bft) W45 270 5 min 75,1 klux 9,7 C 18,1 C
19.06.2008 15:25 22,5 C 24,1 C 25,6 C 45 % 1014 hPa 0,0 l/m 6,3 m/s (4 Bft) W22.5 265 4 min 104 klux 10,0 C 19,1 C
19.06.2008 15:30 22,7 C 24,1 C 25,5 C 44 % 1014 hPa 0,0 l/m 5,9 m/s (4 Bft) W45 260 0 min 53,6 klux 9,8 C 19,5 C
19.06.2008 15:35 22,7 C 24,8 C 25,6 C 45 % 1014 hPa 0,0 l/m 5,8 m/s (4 Bft) W-SW45 250 5 min 68,8 klux 10,1 C 19,6 C
19.06.2008 15:40 23,1 C 25,0 C 25,7 C 42 % 1014 hPa 0,0 l/m 6,9 m/s (4 Bft) W22.5 265 5 min 75,3 klux 9,5 C 19,6 C
19.06.2008 15:45 22,7 C 24,8 C 25,0 C 40 % 1014 hPa 0,0 l/m 9,9 m/s (5 Bft) W45 265 0 min 50,4 klux 8,4 C 18,0 C
19.06.2008 15:50 22,6 C 24,5 C 25,0 C 41 % 1014 hPa 0,0 l/m 7,7 m/s (4 Bft) W45 260 0 min 52,1 klux 8,7 C 18,6 C
19.06.2008 15:55 22,7 C 24,1 C 25,1 C 43 % 1014 hPa 0,0 l/m 8,1 m/s (5 Bft) W-SW45 245 0 min 43,8 klux 9,5 C 18,6 C
19.06.2008 16:00 22,5 C 23,9 C 24,7 C 41 % 1014 hPa 0,0 l/m 7,3 m/s (4 Bft) W-SW45 255 0 min 43,9 klux 8,6 C 18,6 C
19.06.2008 16:05 22,7 C 23,8 C 25,1 C 42 % 1014 hPa 0,0 l/m 8,1 m/s (5 Bft) W45 265 0 min 50,6 klux 9,1 C 18,6 C
19.06.2008 16:10 22,6 C 23,7 C 24,5 C 42 % 1014 hPa 0,0 l/m 6,3 m/s (4 Bft) W-SW67.5 255 0 min 40,5 klux 9,0 C 19,2 C
19.06.2008 16:15 22,5 C 23,6 C 24,5 C 42 % 1014 hPa 0,0 l/m 6,8 m/s (4 Bft) W45 265 0 min 34,8 klux 8,9 C 18,9 C
19.06.2008 16:20 22,3 C 23,5 C 23,8 C 43 % 1014 hPa 0,0 l/m 8,8 m/s (5 Bft) W22.5 270 0 min 22,9 klux 9,1 C 17,8 C
19.06.2008 16:25 22,0 C 23,3 C 24,0 C 42 % 1014 hPa 0,0 l/m 8,9 m/s (5 Bft) W-SW67.5 245 0 min 27,2 klux 8,5 C 17,3 C
19.06.2008 16:30 21,9 C 23,1 C 23,6 C 42 % 1014 hPa 0,0 l/m 8,1 m/s (5 Bft) W-SW67.5 250 0 min 33,7 klux 8,4 C 17,5 C
19.06.2008 16:35 21,7 C 22,9 C 23,4 C 43 % 1014 hPa 0,0 l/m 7,7 m/s (4 Bft) W-SW45 250 0 min 20,8 klux 8,6 C 17,4 C
19.06.2008 16:40 21,7 C 22,8 C 23,7 C 43 % 1014 hPa 0,0 l/m 6,7 m/s (4 Bft) W-SW67.5 250 0 min 34,3 klux 8,6 C 17,8 C
19.06.2008 16:45 21,8 C 22,6 C 23,5 C 47 % 1014 hPa 0,0 l/m 6,3 m/s (4 Bft) W45 260 0 min 52,9 klux 10,0 C 18,2 C
19.06.2008 16:50 22,3 C 23,4 C 24,5 C 45 % 1014 hPa 0,0 l/m 6,3 m/s (4 Bft) W45 265 5 min 115 klux 9,8 C 18,8 C
19.06.2008 16:55 22,2 C 23,5 C 23,5 C 45 % 1014 hPa 0,0 l/m 8,3 m/s (5 Bft) W-SW45 245 5 min 113 klux 9,7 C 17,8 C
19.06.2008 17:00 22,7 C 23,9 C 23,7 C 44 % 1014 hPa 0,0 l/m 7,1 m/s (4 Bft) W67.5 265 0 min 41,9 klux 9,8 C 19,0 C
19.06.2008 17:05 22,6 C 24,3 C 23,9 C 44 % 1014 hPa 0,0 l/m 7,3 m/s (4 Bft) W45 260 5 min 110 klux 9,7 C 18,8 C
19.06.2008 17:10 23,1 C 25,0 C 24,7 C 41 % 1014 hPa 0,0 l/m 7,9 m/s (4 Bft) W-SW45 255 5 min 72,0 klux 9,1 C 19,2 C
19.06.2008 17:15 23,2 C 25,2 C 24,7 C 42 % 1014 hPa 0,0 l/m 6,9 m/s (4 Bft) W-SW45 255 5 min 107 klux 9,6 C 19,7 C
19.06.2008 17:20 23,3 C 25,3 C 24,1 C 43 % 1014 hPa 0,0 l/m 7,1 m/s (4 Bft) W22.5 265 0 min 41,7 klux 10,0 C 19,8 C
19.06.2008 17:25 22,4 C 25,0 C 23,8 C 44 % 1014 hPa 0,0 l/m 4,4 m/s (3 Bft) W-SW22.5 255 0 min 33,5 klux 9,5 C 20,0 C
19.06.2008 17:30 22,3 C 24,4 C 24,0 C 45 % 1014 hPa 0,0 l/m 6,3 m/s (4 Bft) W22.5 260 0 min 33,5 klux 9,8 C 18,8 C
19.06.2008 17:35 22,1 C 23,9 C 23,1 C 44 % 1014 hPa 0,0 l/m 8,9 m/s (5 Bft) W45 260 0 min 26,6 klux 9,3 C 17,5 C
19.06.2008 17:40 21,8 C 23,7 C 23,1 C 45 % 1014 hPa 0,0 l/m 8,5 m/s (5 Bft) W-SW67.5 240 0 min 23,2 klux 9,3 C 17,2 C
19.06.2008 17:45 21,8 C 23,4 C 23,6 C 46 % 1014 hPa 0,0 l/m 4,3 m/s (3 Bft) W-SW45 250 0 min 27,5 klux 9,7 C 19,4 C
19.06.2008 17:50 22,1 C 23,6 C 23,6 C 46 % 1014 hPa 0,0 l/m 5,6 m/s (4 Bft) W-SW45 250 0 min 39,4 klux 9,9 C 18,9 C
19.06.2008 17:55 22,4 C 23,9 C 23,9 C 45 % 1014 hPa 0,0 l/m 5,9 m/s (4 Bft) W-SW45 245 5 min 85,3 klux 9,9 C 19,1 C
19.06.2008 18:00 22,7 C 24,6 C 23,7 C 45 % 1014 hPa 0,0 l/m 9,2 m/s (5 Bft) W-SW45 255 5 min 80,4 klux 10,1 C 18,2 C
19.06.2008 18:05 22,5 C 25,3 C 23,0 C 45 % 1014 hPa 0,0 l/m 9,4 m/s (5 Bft) W45 260 5 min 80,4 klux 10,0 C 17,9 C
19.06.2008 18:10 22,1 C 24,4 C 23,0 C 47 % 1014 hPa 0,0 l/m 6,6 m/s (4 Bft) W-SW45 255 0 min 19,4 klux 10,3 C 18,4 C
19.06.2008 18:15 21,6 C 24,0 C 22,8 C 48 % 1014 hPa 0,0 l/m 7,6 m/s (4 Bft) W45 270 0 min 18,2 klux 10,1 C 17,3 C
19.06.2008 18:20 21,6 C 23,6 C 22,9 C 48 % 1014 hPa 0,0 l/m 7,3 m/s (4 Bft) W45 265 0 min 22,2 klux 10,1 C 17,4 C
19.06.2008 18:25 21,7 C 23,4 C 22,9 C 48 % 1014 hPa 0,0 l/m 7,6 m/s (4 Bft) W45 260 0 min 20,0 klux 10,2 C 17,4 C
19.06.2008 18:30 21,7 C 23,2 C 22,6 C 47 % 1014 hPa 0,0 l/m 7,4 m/s (4 Bft) W45 260 0 min 21,8 klux 9,9 C 17,5 C
19.06.2008 18:35 21,8 C 23,1 C 23,0 C 47 % 1014 hPa 0,0 l/m 8,1 m/s (5 Bft) W-SW45 250 0 min 34,3 klux 10,0 C 17,4 C
19.06.2008 18:40 22,0 C 23,1 C 22,9 C 49 % 1014 hPa 0,0 l/m 6,3 m/s (4 Bft) W67.5 260 0 min 22,4 klux 10,8 C 18,4 C
19.06.2008 18:45 21,7 C 22,8 C 22,4 C 49 % 1014 hPa 0,0 l/m 6,7 m/s (4 Bft) W-SW22.5 245 0 min 14,5 klux 10,5 C 17,8 C
19.06.2008 18:50 21,5 C 22,6 C 22,5 C 49 % 1014 hPa 0,0 l/m 7,6 m/s (4 Bft) W45 260 0 min 11,9 klux 10,3 C 17,1 C
19.06.2008 18:55 21,2 C 22,5 C 22,2 C 50 % 1014 hPa 0,0 l/m 6,4 m/s (4 Bft) W-SW45 255 0 min 8,13 klux 10,4 C 17,3 C
19.06.2008 19:00 21,0 C 22,1 C 22,0 C 50 % 1014 hPa 0,0 l/m 8,4 m/s (5 Bft) W45 260 0 min 8,39 klux 10,2 C 16,1 C
19.06.2008 19:05 20,9 C 22,0 C 22,0 C 51 % 1014 hPa 0,0 l/m 5,2 m/s (3 Bft) W22.5 260 0 min 10,7 klux 10,4 C 17,6 C
19.06.2008 19:10 20,9 C 21,9 C 22,1 C 51 % 1014 hPa 0,0 l/m 4,1 m/s (3 Bft) W45 260 0 min 15,9 klux 10,4 C 18,4 C
19.06.2008 19:15 21,1 C 21,9 C 22,0 C 51 % 1014 hPa 0,0 l/m 3,5 m/s (3 Bft) W-SW22.5 255 0 min 12,8 klux 10,6 C 19,1 C
19.06.2008 19:20 20,8 C 21,8 C 21,7 C 51 % 1014 hPa 0,0 l/m 5,7 m/s (4 Bft) W-SW67.5 250 0 min 12,9 klux 10,3 C 17,1 C
19.06.2008 19:25 20,8 C 21,7 C 21,6 C 51 % 1014 hPa 0,0 l/m 5,7 m/s (4 Bft) W-SW45 245 0 min 11,3 klux 10,3 C 17,1 C
19.06.2008 19:30 20,8 C 21,6 C 21,2 C 52 % 1014 hPa 0,0 l/m 9,1 m/s (5 Bft) W-SW22.5 250 0 min 12,3 klux 10,6 C 15,5 C
19.06.2008 19:35 20,7 C 21,4 C 21,4 C 53 % 1014 hPa 0,0 l/m 9,3 m/s (5 Bft) W-SW67.5 250 0 min 15,6 klux 10,8 C 15,4 C
19.06.2008 19:40 20,7 C 21,4 C 21,2 C 54 % 1014 hPa 0,0 l/m 8,3 m/s (5 Bft) W45 260 0 min 12,9 klux 11,1 C 15,7 C
19.06.2008 19:46 20,6 C 21,2 C 21,1 C 54 % 1014 hPa 0,0 l/m 8,5 m/s (5 Bft) W45 260 0 min 11,3 klux 11,0 C 15,5 C
19.06.2008 19:51 20,4 C 21,1 C 20,9 C 54 % 1014 hPa 0,0 l/m 6,7 m/s (4 Bft) W22.5 265 0 min 10,6 klux 10,8 C 16,0 C
19.06.2008 19:56 20,3 C 21,0 C 20,8 C 55 % 1014 hPa 0,0 l/m 7,7 m/s (4 Bft) W45 260 0 min 10,2 klux 11,0 C 15,4 C
19.06.2008 20:01 20,3 C 21,0 C 20,7 C 55 % 1014 hPa 0,0 l/m 7,2 m/s (4 Bft) W-SW22.5 255 0 min 11,0 klux 11,0 C 15,6 C
19.06.2008 20:06 20,2 C 20,9 C 20,7 C 54 % 1014 hPa 0,0 l/m 5,6 m/s (4 Bft) W45 260 0 min 9,8 klux 10,6 C 16,5 C
19.06.2008 20:11 20,2 C 20,8 C 20,6 C 55 % 1014 hPa 0,0 l/m 6,1 m/s (4 Bft) W22.5 260 0 min 7,76 klux 10,9 C 16,1 C
19.06.2008 20:16 20,0 C 20,7 C 20,5 C 55 % 1014 hPa 0,0 l/m 6,9 m/s (4 Bft) W-SW45 255 0 min 5,58 klux 10,7 C 15,4 C
19.06.2008 20:21 20,0 C 20,6 C 20,4 C 55 % 1014 hPa 0,0 l/m 6,9 m/s (4 Bft) W-SW45 245 0 min 6,04 klux 10,7 C 15,4 C
19.06.2008 20:26 19,9 C 20,6 C 20,4 C 55 % 1014 hPa 0,0 l/m 7,9 m/s (4 Bft) W45 270 0 min 5,70 klux 10,6 C 14,8 C
19.06.2008 20:31 19,9 C 20,4 C 20,3 C 55 % 1014 hPa 0,0 l/m 6,1 m/s (4 Bft) W-SW67.5 240 0 min 4,36 klux 10,6 C 15,7 C
19.06.2008 20:36 19,8 C 20,4 C 20,3 C 55 % 1014 hPa 0,0 l/m 5,9 m/s (4 Bft) W22.5 265 0 min 3,65 klux 10,5 C 15,7 C
19.06.2008 20:41 19,8 C 20,4 C 20,1 C 55 % 1015 hPa 0,0 l/m 6,4 m/s (4 Bft) W45 260 0 min 3,30 klux 10,5 C 15,4 C
19.06.2008 20:46 19,7 C 20,3 C 20,1 C 56 % 1015 hPa 0,0 l/m 5,8 m/s (4 Bft) W45 260 0 min 3,39 klux 10,7 C 15,7 C
19.06.2008 20:51 19,6 C 20,3 C 20,0 C 57 % 1015 hPa 0,0 l/m 5,3 m/s (3 Bft) W45 260 0 min 1,90 klux 10,8 C 15,9 C
19.06.2008 20:56 19,6 C 20,2 C 20,0 C 57 % 1015 hPa 0,0 l/m 6,9 m/s (4 Bft) W22.5 265 0 min 1,94 klux 10,8 C 14,9 C
19.06.2008 21:01 19,5 C 20,1 C 19,8 C 57 % 1015 hPa 0,0 l/m 3,3 m/s (2 Bft) W45 270 0 min 2,02 klux 10,8 C 17,5 C
19.06.2008 21:06 19,4 C 20,0 C 19,7 C 58 % 1015 hPa 0,0 l/m 4,3 m/s (3 Bft) W22.5 260 0 min 1,91 klux 10,9 C 16,4 C
19.06.2008 21:11 19,3 C 19,9 C 19,6 C 58 % 1015 hPa 0,0 l/m 4,5 m/s (3 Bft) W-SW45 255 0 min 1,44 klux 10,8 C 16,1 C
19.06.2008 21:16 19,2 C 19,8 C 19,7 C 59 % 1015 hPa 0,0 l/m 4,0 m/s (3 Bft) W22.5 260 0 min 762 lux 11,0 C 16,4 C
19.06.2008 21:21 19,2 C 19,8 C 19,5 C 59 % 1015 hPa 0,0 l/m 3,1 m/s (2 Bft) W-SW45 245 0 min 837 lux 11,0 C 17,4 C
19.06.2008 21:26 19,2 C 19,7 C 19,4 C 59 % 1015 hPa 0,0 l/m 4,9 m/s (3 Bft) W-SW45 255 0 min 868 lux 11,0 C 15,7 C
19.06.2008 21:31 19,1 C 19,7 C 19,4 C 59 % 1015 hPa 0,0 l/m 5,9 m/s (4 Bft) W22.5 270 0 min 437 lux 10,9 C 14,8 C
19.06.2008 21:36 19,2 C 19,6 C 19,3 C 60 % 1015 hPa 0,0 l/m 8,2 m/s (5 Bft) W-NW22.5 290 0 min 168 lux 11,2 C 13,7 C
19.06.2008 21:41 18,7 C 19,5 C 18,8 C 66 % 1015 hPa 0,0 l/m 6,6 m/s (4 Bft) W-NW22.5 300 0 min 355 lux 12,2 C 13,8 C
19.06.2008 21:46 18,1 C 19,2 C 18,8 C 67 % 1015 hPa 0,0 l/m 5,4 m/s (3 Bft) W-NW22.5 295 0 min 334 lux 11,9 C 13,9 C
19.06.2008 21:51 17,9 C 19,0 C 18,7 C 69 % 1015 hPa 0,0 l/m 3,4 m/s (2 Bft) W-NW22.5 285 0 min 390 lux 12,1 C 15,5 C
19.06.2008 21:55 17,5 C 18,7 C 18,5 C 71 % 1015 hPa 0,0 l/m 3,1 m/s (2 Bft) W22.5 275 0 min 307 lux 12,2 C 15,5 C
19.06.2008 22:00 17,1 C 18,5 C 18,3 C 73 % 1015 hPa 0,0 l/m 4,1 m/s (3 Bft) W-NW22.5 290 0 min 152 lux 12,2 C 13,9 C
19.06.2008 22:05 16,8 C 18,4 C 18,3 C 74 % 1016 hPa 0,0 l/m 2,9 m/s (2 Bft) W45 275 0 min 59 lux 12,1 C 14,9 C
19.06.2008 22:10 16,8 C 18,3 C 18,4 C 74 % 1016 hPa 0,0 l/m 0,3 m/s (0 Bft) W-SW45 250 0 min 27 lux 12,1 C 16,8 C
19.06.2008 22:15 16,8 C 18,0 C 18,1 C 76 % 1016 hPa 0,0 l/m 0,3 m/s (1 Bft) W22.5 260 0 min 17 lux 12,5 C 16,8 C
19.06.2008 22:20 16,6 C 18,0 C 18,0 C 79 % 1016 hPa 0,0 l/m 1,1 m/s (1 Bft) W22.5 260 0 min 6 lux 12,9 C 16,6 C
19.06.2008 22:25 16,5 C 17,8 C 17,8 C 78 % 1016 hPa 0,0 l/m 1,6 m/s (2 Bft) SW22.5 225 0 min 6 lux 12,6 C 16,5 C
19.06.2008 22:30 16,4 C 17,7 C 17,7 C 80 % 1016 hPa 0,0 l/m 1,0 m/s (1 Bft) SW 235 0 min 6 lux 12,9 C 16,4 C
19.06.2008 22:35 16,1 C 17,5 C 17,5 C 82 % 1016 hPa 0,0 l/m 1,2 m/s (1 Bft) SW22.5 230 0 min 3 lux 13,0 C 16,1 C
19.06.2008 22:40 16,0 C 17,3 C 17,4 C 83 % 1016 hPa 0,0 l/m 2,1 m/s (2 Bft) W-SW 255 0 min 1 lux 13,1 C 15,4 C
19.06.2008 22:45 15,8 C 17,3 C 17,5 C 83 % 1016 hPa 0,0 l/m 0,0 m/s (0 Bft) SW 230 0 min 0 lux 12,9 C 15,8 C
19.06.2008 22:50 15,8 C 17,2 C 17,3 C 83 % 1016 hPa 0,0 l/m 0,0 m/s (0 Bft) SW 225 0 min 0 lux 12,9 C 15,8 C
19.06.2008 22:55 15,8 C 17,1 C 17,0 C 83 % 1016 hPa 0,0 l/m 0,0 m/s (0 Bft) SW 225 0 min 0 lux 12,9 C 15,8 C
19.06.2008 23:00 15,7 C 17,0 C 17,1 C 83 % 1016 hPa 0,0 l/m 0,0 m/s (0 Bft) SW 225 0 min 0 lux 12,8 C 15,7 C
19.06.2008 23:05 15,7 C 17,0 C 16,9 C 83 % 1016 hPa 0,4 l/m 0,0 m/s (0 Bft) SW 225 0 min 0 lux 12,8 C 15,7 C
19.06.2008 23:10 15,7 C 16,9 C 16,9 C 85 % 1016 hPa 0,0 l/m 0,0 m/s (0 Bft) SW 225 0 min 0 lux 13,2 C 15,7 C
19.06.2008 23:15 15,7 C 16,9 C 16,7 C 87 % 1016 hPa 0,0 l/m 1,9 m/s (2 Bft) W-SW45 250 0 min 0 lux 13,5 C 15,4 C
19.06.2008 23:20 15,6 C 16,8 C 16,6 C 87 % 1016 hPa 0,4 l/m 2,3 m/s (2 Bft) W22.5 270 0 min 0 lux 13,4 C 14,5 C
19.06.2008 23:25 15,6 C 16,8 C 16,5 C 87 % 1016 hPa 0,4 l/m 3,6 m/s (3 Bft) W-NW45 290 0 min 0 lux 13,4 C 12,7 C
19.06.2008 23:30 15,5 C 16,7 C 16,5 C 88 % 1016 hPa 1,1 l/m 2,8 m/s (2 Bft) W22.5 265 0 min 0 lux 13,5 C 13,6 C
19.06.2008 23:35 15,4 C 16,5 C 16,6 C 89 % 1016 hPa 1,4 l/m 1,3 m/s (1 Bft) SW 225 0 min 0 lux 13,6 C 15,4 C
19.06.2008 23:40 15,3 C 16,5 C 16,5 C 89 % 1016 hPa 0,4 l/m 1,3 m/s (1 Bft) SW 230 0 min 0 lux 13,5 C 15,3 C
19.06.2008 23:45 15,2 C 16,4 C 16,6 C 90 % 1016 hPa 0,4 l/m 0,2 m/s (0 Bft) SW 230 0 min 0 lux 13,6 C 15,2 C
19.06.2008 23:50 15,2 C 16,3 C 16,6 C 90 % 1016 hPa 0,0 l/m 1,9 m/s (2 Bft) W-SW22.5 245 0 min 0 lux 13,6 C 14,9 C
19.06.2008 23:55 15,2 C 16,3 C 16,4 C 91 % 1016 hPa 0,4 l/m 1,6 m/s (1 Bft) W22.5 260 0 min 0 lux 13,7 C 15,2 C
_ Min-Zeit 05:21 05:11 05:36 13:01 13:31 - 00:01 - - - - 11:06 05:21
Minimum _ 9,6 C 10,3 C 11,0 C 37 % 1013 hPa - 0,0 m/s (0 Bft) - - - - 7,0 C 9,6 C
_ Max-Zeit 14:06 14:06 14:01 23:55 00:01 23:35 14:56 - - 08:51 13:36 23:55 14:01
Maximum _ 24,6 C 26,4 C 29,8 C 91 % 1016 hPa 1,4 l/m 11,8 m/s
W-SW (6 Bft)
- - 5 min 145 klux 13,7 C 21,9 C
Durchschnitt _ 16,9 C 18,0 C 18,9 C 64 % 1015 hPa #4,7 l/m 3,7 m/s (3 Bft) W - #5:49 h 32,4 klux 9,3 C 14,8 C